This is the latest recevied weather packets stored in our database for station/object KY4OP-13. If no packets are shown the sender has not sent any weather packets the latest 1 day(s).
| Time | Temp. | Humidity | Pressure | Rain* | Wind** | Luminosity | Snow |
|---|---|---|---|---|---|---|---|
| 1778073752 | 15.56° C | 95% | 1012.3 hPa | 0 mm | - | - | - |
| 1778072843 | 15° C | 95% | 1012.4 hPa | 0 mm | - | - | - |
| 1778072238 | 15° C | 95% | 1012.3 hPa | 0 mm | - | - | - |
| 1778071331 | 15° C | 94% | 1012.5 hPa | 0 mm | - | - | - |
| 1778071028 | 15° C | 94% | 1012.7 hPa | 1.27 mm | - | - | - |
| 1778070121 | 15° C | 93% | 1012.5 hPa | 1.27 mm | - | - | - |
| 1778068608 | 15.56° C | 90% | 1012.4 hPa | 0 mm | - | - | - |
| 1778068306 | 15.56° C | 90% | 1012.1 hPa | 0 mm | - | - | - |
| 1778068003 | 15.56° C | 90% | 1012.2 hPa | 0 mm | - | - | - |
| 1778067096 | 15.56° C | 89% | 1012.4 hPa | 0 mm | - | - | - |
| 1778066792 | 15.56° C | 89% | 1012.3 hPa | 0 mm | - | - | - |
| 1778065885 | 16.11° C | 87% | 1012.2 hPa | 1.27 mm | - | - | - |
| 1778065582 | 16.11° C | 85% | 1012.3 hPa | 0 mm | - | - | - |
| 1778064673 | 17.22° C | 79% | 1012.1 hPa | 0 mm | - | - | - |
| 1778064371 | 17.22° C | 77% | 1012 hPa | 0 mm | - | - | - |
| 1778064068 | 17.78° C | 75% | 1012 hPa | 0 mm | - | - | - |
| 1778063462 | 17.78° C | 75% | 1011.8 hPa | 0 mm | - | - | - |
| 1778062857 | 17.78° C | 74% | 1011.7 hPa | 0 mm | - | - | - |
| 1778062554 | 17.78° C | 74% | 1011.8 hPa | 0 mm | - | - | - |
| 1778062251 | 17.78° C | 74% | 1011.7 hPa | 0 mm | - | - | - |
| 1778061647 | 17.78° C | 74% | 1011.6 hPa | 0 mm | - | - | - |
| 1778058320 | 18.33° C | 71% | 1012.2 hPa | 0 mm | - | - | - |
| 1778058016 | 18.33° C | 71% | 1012 hPa | 0 mm | - | - | - |
| 1778057713 | 18.33° C | 71% | 1011.7 hPa | 0 mm | - | - | - |
| 1778057409 | 17.78° C | 71% | 1012.2 hPa | 0 mm | - | - | - |
* Rain latest hour (hover to see other rain measurements)
** Current wind speed in m/s (hover to see current wind gust speed)